www.pogodaiklimat.ru

Погода и климат >> Архив погоды >> Норвегия >> Маяк Utsira


ПОГОДА на Маяке Utsira

  • Прогноз погоды на Маяке Utsira
  • Монитор погоды на Маяке Utsira

АРХИВ ПОГОДЫ на Маяке Utsira

Время (UTC), дата Ветер
(напр.,м/с)
 
Видим.   Явления Облачность Т
(С)
Тd
(С)
f
(%)
Тe
(С)
Тes
(С)
Комфортность P
(гПа)
Po
(гПа)
Тmin
(С)
Tmax
(С)
R
(мм)
R24
(мм)
S
(см)
07 12.02 ЮЗ 8
{11}
н/о н/о +4.5 -0.7 69 -1 -1 1021.4 1014.4
08 12.02 ЮЗ 10
{14}
н/о н/о +4.3 +1.0 79 -2 -2 1021.1 1014.1 0.3
09 12.02 ЮЗ 10
{13}
6000 м слаб. дождь 10/6 300 м
[Frnb As op]
+4.4 +1.9 84 -2 -2 1020.7 1013.7 0.4
10 12.02 Ю 10
{14}
н/о н/о +4.4 +2.4 87 -2 -2 1020.2 1013.2 1
11 12.02 Ю 11
{15}
н/о н/о +4.7 +3.2 90 -2 -2 1019.2 1012.2 2
12 12.02 Ю 11
{15}
4000 м дождь 10/9 300 м
[Frnb As op]
+5.4 +4.2 92 -1 -1 1018.3 1011.3 5
13 12.02 ЮЗ 10
{13}
н/о н/о +6.0 +5.0 93 -0 -0 1017.4 1010.4 1
14 12.02 ЮЗ 11
{14}
н/о н/о +6.2 +5.2 93 -0 -0 1016.6 1009.7 0.8
15 12.02 ЮЗ 9
{13}
5000 м дымка {дождь} 10/10 200 м
[St]
+6.3 +5.3 93 +1 +1 1016.1 1009.2
16 12.02 ЮЗ 9
{13}
н/о н/о +6.5 +5.3 92 +1 +1 1015.4 1008.5
17 12.02 ЮЗ 9
{12}
н/о н/о +6.5 +5.5 93 +1 +1 1015.2 1008.3 0.6
18 12.02 З 12
{15}
н/о {дождь} н/о +6.9 +5.9 93 +1 +1 1015.5 1008.6 +4.1 +6.9 8
19 12.02 З 12
{17}
н/о н/о +6.8 +5.6 92 0 0 1015.4 1008.5
20 12.02 З 13
{16}
н/о н/о +7.2 +6.0 92 +1 +1 1015.7 1008.8
21 12.02 З 13
{15}
15 км 4/4 600 м
[Sc]
+7.2 +5.7 90 +1 +1 1015.9 1009.0
22 12.02 З 13
{16}
н/о н/о +7.2 +5.7 90 +1 +1 1015.8 1008.9
23 12.02 З 14
{21}
н/о н/о +7.8 +4.6 80 +2 +2 1016.5 1009.6
00 13.02 З 13
{21}
н/о н/о +7.5 +3.9 78 +2 +2 1016.6 1009.7
01 13.02 З 14
{19}
н/о н/о +7.4 +4.4 81 +1 +1 1017.3 1010.4
02 13.02 З 14
{18}
н/о н/о +7.2 +4.5 83 +1 +1 1018.2 1011.3
03 13.02 З 12
{16}
н/о н/о +7.3 +4.6 83 +1 +1 1019.0 1012.1
04 13.02 З 10
{15}
н/о н/о +7.1 +4.8 85 +1 +1 1020.2 1013.3
05 13.02 З 8
{12}
н/о н/о +6.9 +4.7 86 +2 +2 1020.9 1013.9
06 13.02 З 7
{19}
8000 м дымка 5/0
[Cs]
+6.6 +4.6 87 +2 +2 1021.9 1014.9 +6.6 +8.1
07 13.02 ЮЗ 5
{8}
н/о н/о +6.2 +4.5 89 +2 +2 1022.9 1015.9
08 13.02 ЮЗ 5
{7}
н/о н/о +6.0 +4.5 90 +2 +2 1023.4 1016.4
09 13.02 ЮЗ 5
{6}
7000 м дымка 9/5 300 м
[St Cs]
+6.1 +4.8 91 +2 +2 1023.2 1016.2
10 13.02 ЮЗ 6
{8}
н/о н/о +6.4 +5.0 91 +2 +2 1023.1 1016.1
11 13.02 Ю 3
{7}
н/о н/о +6.8 +5.4 91 +4 +4 1022.4 1015.4
12 13.02 Ю 4
{8}
7000 м дымка 8/0
[Cs]
+7.2 +5.5 89 +4 +4 1022.3 1015.3
13 13.02 Ю 6
{8}
н/о н/о +6.8 +5.1 89 +2 +2 1021.9 1014.9
14 13.02 Ю 7
{9}
н/о н/о +6.3 +4.9 91 +1 +1 1021.7 1014.7 0.1
15 13.02 Ю 6
{9}
5000 м дымка {дождь} 10/10 200 м
[St]
+6.2 +5.0 92 +1 +1 1021.2 1014.2
16 13.02 Ю 7
{10}
н/о н/о +6.2 +5.2 93 +1 +1 1021.2 1014.2 0.3
17 13.02 ЮЗ 7
{10}
н/о н/о +6.6 +5.7 94 +1 +1 1021.5 1014.5
18 13.02 Ю 7
{10}
5000 м дымка {дождь} 10/10 200 м
[St]
+6.4 +5.5 94 +1 +1 1021.2 1014.2 +5.9 +7.2 0.7
19 13.02 ЮЗ 7
{9}
н/о н/о +6.5 +5.6 94 +1 +1 1021.7 1014.7
20 13.02 Ю 6
{9}
н/о н/о +6.5 +5.6 94 +2 +2 1022.0 1015.0
21 13.02 Ю 6
{8}
6000 м дымка 10/10 200 м
[St]
+6.6 +5.7 94 +2 +2 1022.3 1015.3
22 13.02 Ю 7
{9}
н/о н/о +6.7 +5.8 94 +2 +2 1022.4 1015.4
23 13.02 Ю 8
{10}
н/о н/о +6.6 +5.7 94 +1 +1 1022.5 1015.5
00 14.02 Ю 10
{12}
н/о н/о +6.4 +5.5 94 0 0 1022.7 1015.7
01 14.02 ЮЗ 9
{11}
н/о н/о +6.5 +5.6 94 +1 +1 1023.4 1016.4
02 14.02 Ю 8
{11}
н/о н/о +6.3 +5.4 94 +1 +1 1022.8 1015.8
03 14.02 Ю 9
{12}
н/о н/о +6.2 +5.3 94 0 0 1022.2 1015.2
04 14.02 Ю 10
{12}
н/о н/о +6.2 +5.3 94 0 0 1022.7 1015.7
05 14.02 Ю 10
{13}
н/о н/о +6.3 +5.4 94 0 0 1023.2 1016.2
06 14.02 Ю 8
{13}
7000 м дымка 10/10 300 м
[St]
+6.3 +5.4 94 +1 +1 1023.6 1016.6 +6.1 +6.7
07 14.02 Ю 10
{13}
н/о н/о +6.4 +5.5 94 0 0 1023.4 1016.4
08 14.02 Ю 8
{14}
н/о н/о +6.4 +5.2 92 +1 +1 1024.0 1017.0
09 14.02 Ю 8
{12}
6000 м дымка 10/10 300 м
[St]
+6.5 +5.3 92 +1 +1 1024.7 1017.7
10 14.02 Ю 8
{11}
н/о н/о +6.4 +5.2 92 +1 +1 1024.7 1017.7
11 14.02 Ю 7
{10}
н/о н/о +6.6 +5.4 92 +2 +2 1024.9 1017.9
12 14.02 Ю 7
{14}
6000 м дымка 10/4 600 м
[St Cs]
+6.6 +5.4 92 +2 +2 1025.3 1018.3
13 14.02 Ю 6
{8}
н/о н/о +6.7 +5.5 92 +2 +2 1025.2 1018.2
14 14.02 Ю 5
{8}
н/о н/о +6.6 +5.4 92 +2 +2 1025.1 1018.1
15 14.02 ЮЗ 6
{8}
4000 м дымка 10/0 2000 м
[Ac As Cs]
+6.5 +5.5 93 +2 +2 1025.1 1018.1
16 14.02 ЮЗ 5
{8}
н/о н/о +6.4 +5.4 93 +2 +2 1025.2 1018.2
17 14.02 ЮЗ 5
{7}
н/о н/о +6.3 +5.4 94 +2 +2 1025.5 1018.5
18 14.02 ЮЗ 5
{8}
4000 м дымка 10/0 2000 м
[As trans]
+6.1 +5.2 94 +2 +2 1025.5 1018.5 +6.0 +6.9
19 14.02 Ю 5
{7}
н/о н/о +6.0 +5.1 94 +1 +1 1025.5 1018.5
20 14.02 Ю 5
{8}
н/о н/о +6.0 +5.3 95 +1 +1 1025.4 1018.4
21 14.02 Ю 6
{9}
н/о н/о +6.2 +5.5 95 +1 +1 1025.6 1018.6
22 14.02 Ю 7
{8}
н/о н/о +6.2 +5.5 95 +1 +1 1025.7 1018.7
23 14.02 Ю 7 н/о н/о +6.1 +5.4 95 +1 +1 1025.7 1018.7
03 15.02 Ю 10
{15}
н/о н/о +5.8 +5.1 95 -1 -1 1024.6 1017.6
04 15.02 Ю 10
{14}
н/о н/о +5.7 +5.0 95 -1 -1 1024.1 1017.1 0.1
05 15.02 Ю 10
{15}
н/о н/о +5.4 +4.7 95 -1 -1 1024.0 1017.0
06 15.02 Ю 11 8000 м дымка 9/6 300 м
[St Cs]
+5.5 +4.8 95 -1 -1 1023.7 1016.7
07 15.02 Ю 11
{16}
н/о н/о +5.6 +4.9 95 -1 -1 1023.8 1016.8
08 15.02 Ю 12
{16}
н/о н/о +5.6 +4.9 95 -1 -1 1023.4 1016.4
09 15.02 Ю 12
{16}
6000 м дымка 10/6 300 м
[St Cs]
+5.6 +4.7 94 -1 -1 1023.4 1016.4
10 15.02 Ю 11
{17}
н/о н/о +5.8 +4.9 94 -1 -1 1022.8 1015.8
11 15.02 Ю 12
{16}
н/о н/о +6.1 +5.1 93 -1 -1 1021.8 1014.8
12 15.02 Ю 12
{17}
10 км 8/0
[Cs]
+6.6 +4.9 89 0 0 1021.3 1014.3
13 15.02 Ю 12
{16}
н/о н/о +6.6 +4.8 88 0 0 1020.6 1013.6
14 15.02 Ю 12
{17}
н/о н/о +6.7 +4.5 86 0 0 1019.9 1012.9
15 15.02 Ю 12
{17}
10 км 4/1 600 м
[St Ci sp]
+6.4 +4.4 87 0 0 1018.6 1011.7
16 15.02 Ю 12
{17}
н/о н/о +6.2 +4.2 87 -0 -0 1018.3 1011.3
17 15.02 Ю 12
{16}
н/о н/о +6.1 +3.9 86 -0 -0 1018.2 1011.2
18 15.02 Ю 11
{17}
10 км 1/0
[Cs]
+6.0 +3.8 86 -0 -0 1017.4 1010.4 +5.5 +6.8
19 15.02 Ю 12
{16}
н/о н/о +6.0 +4.0 87 -1 -1 1016.6 1009.7
20 15.02 Ю 13
{19}
н/о н/о +5.9 +4.1 88 -1 -1 1016.1 1009.2
21 15.02 Ю 12
{16}
10 км 1/0
[Ci fib]
+5.8 +4.1 89 -1 -1 1015.5 1008.6
22 15.02 Ю 12
{18}
н/о н/о +6.0 +4.3 89 -1 -1 1015.2 1008.3
23 15.02 Ю 11
{16}
н/о н/о +6.0 +4.3 89 -0 -0 1014.6 1007.7
00 16.02 Ю 11
{19}
н/о н/о +5.8 +4.3 90 -1 -1 1014.2 1007.3
01 16.02 Ю 11
{16}
н/о н/о +6.0 +4.5 90 -0 -0 1013.4 1006.5
02 16.02 Ю 11
{15}
н/о н/о +6.0 +4.5 90 -0 -0 1012.6 1005.7
03 16.02 Ю 11
{15}
н/о н/о +6.1 +4.8 91 -0 -0 1011.4 1004.5
04 16.02 Ю 12
{16}
н/о н/о +6.0 +4.7 91 -1 -1 1010.0 1003.1
05 16.02 Ю 13
{17}
н/о н/о +6.2 +4.9 91 -1 -1 1008.8 1001.9
06 16.02 Ю 13
{19}
4000 м сильн. дождь 10/0 300 м
[As op]
+6.5 +5.3 92 -0 -0 1008.2 1001.3 +5.8 +6.6 2
07 16.02 Ю 12
{17}
н/о н/о +6.5 +5.5 93 0 0 1008.3 1001.4 0.2
08 16.02 ЮЗ 9
{14}
н/о н/о +7.2 +6.0 92 +2 +2 1009.1 1002.2
09 16.02 З 9
{11}
6000 м дымка {дождь} 10/9 300 м
[St Cs]
+7.3 +6.2 93 +2 +2 1009.8 1002.9
10 16.02 З 7
{12}
н/о н/о +7.6 +6.4 92 +3 +3 1010.1 1003.2
11 16.02 ЮЗ 7
{10}
н/о н/о +7.2 +6.0 92 +2 +2 1011.4 1004.5
12 16.02 ЮЗ 8
{17}
6000 м дымка {дождь} 10/6 300 м
[St Ac trans Cc]
+7.4 +6.3 93 +2 +2 1012.1 1005.2 0.2
13 16.02 З 6
{10}
н/о н/о +7.1 +6.1 93 +3 +3 1012.4 1005.5
14 16.02 СЗ 5
{7}
н/о н/о +7.0 +5.8 92 +3 +3 1012.6 1005.7
15 16.02 С 5
{8}
10 км 8/5 600 м
[Sc Ci sp]
+6.5 +5.1 91 +2 +2 1013.1 1006.2
16 16.02 С 4
{6}
н/о н/о +5.6 +4.1 90 +2 +2 1013.3 1006.4
17 16.02 В 1
{5}
н/о н/о +5.0 +3.7 91 +4 +4 1013.9 1006.9
18 16.02 В 1
{10}
12 км 9/9 600 м
[Sc]
+5.2 +3.9 91 +4 +4 1014.2 1007.2 +5.0 +7.7 0.2
19 16.02 Ю 3
{3}
н/о н/о +5.3 +4.0 91 +2 +2 1014.2 1007.3
20 16.02 Ю 4
{6}
н/о н/о +5.7 +4.4 91 +2 +2 1014.4 1007.5
21 16.02 ЮВ 4
{5}
10 км 10/10 300 м
[St]
+5.8 +4.6 92 +2 +2 1014.6 1007.7
22 16.02 Ю 5
{6}
н/о н/о +6.1 +5.1 93 +2 +2 1014.9 1008.0
23 16.02 Ю 5
{7}
н/о н/о +6.1 +5.2 94 +2 +2 1014.9 1008.0
00 17.02 Ю 5
{7}
н/о н/о +6.3 +5.4 94 +2 +2 1014.6 1007.7
01 17.02 ЮЗ 5
{8}
н/о н/о +6.3 +5.4 94 +2 +2 1014.4 1007.5
02 17.02 ЮЗ 6
{9}
н/о н/о +6.3 +5.4 94 +1 +1 1014.4 1007.5
03 17.02 ЮЗ 7
{9}
н/о н/о +6.3 +5.4 94 +1 +1 1014.2 1007.3
04 17.02 Ю 7
{9}
н/о н/о +6.0 +5.0 93 +1 +1 1014.0 1007.1
05 17.02 Ю 8
{10}
н/о н/о +6.1 +5.1 93 +1 +1 1013.7 1006.8
06 17.02 Ю 8
{10}
10 км 10/10 300 м
[St]
+6.0 +5.0 93 0 0 1013.7 1006.8 +5.1 +6.3
07 17.02 Ю 10
{13}
н/о н/о +6.1 +5.1 93 -0 -0 1013.5 1006.6
08 17.02 Ю 10
{14}
н/о н/о +6.2 +5.2 93 0 0 1013.7 1006.8 0.5
09 17.02 Ю 11
{16}
6000 м в посл. час морось 10/10 200 м
[St]
+6.3 +5.4 94 -0 -0 1013.7 1006.8 0.3
10 17.02 Ю 11
{15}
н/о н/о +6.6 +5.7 94 0 0 1013.6 1006.7
11 17.02 Ю 13
{17}
н/о н/о +6.4 +5.5 94 -0 -0 1013.4 1006.5
12 17.02 Ю 13
{19}
500 м туман ?/? +6.3 +5.6 95 -1 -1 1012.9 1006.0 0.8
13 17.02 Ю 13
{19}
н/о н/о +6.4 +5.7 95 -0 -0 1012.2 1005.3
14 17.02 Ю 14
{20}
н/о н/о +6.2 +5.5 95 -1 -1 1011.7 1004.8 0.3
15 17.02 Ю 13
{20}
900 м туман ?/? +6.2 +5.6 96 -1 -1 1011.2 1004.3
16 17.02 Ю 15
{22}
н/о н/о +6.5 +5.9 96 -1 -1 1010.7 1003.8 0.2
17 17.02 Ю 15
{21}
н/о н/о +6.3 +5.6 95 -1 -1 1010.0 1003.1
18 17.02 Ю 17
{22}
10 км {туман} 9/3 1000 м
[Sc Cs]
+6.6 +5.7 94 -1 -1 1009.4 1002.5 +6.0 +6.6 1
19 17.02 Ю 17
{23}
н/о н/о +6.6 +5.2 91 -1 -1 1009.2 1002.3
20 17.02 Ю 15
{21}
н/о н/о +6.4 +4.9 90 -1 -1 1009.4 1002.5
21 17.02 Ю 16
{21}
10 км 9/9 600 м
[Sc]
+6.4 +4.7 89 -1 -1 1009.4 1002.5
22 17.02 Ю 14
{21}
н/о н/о +6.4 +4.7 89 -1 -1 1009.6 1002.7
23 17.02 Ю 14
{18}
н/о н/о +6.4 +4.7 89 -1 -1 1009.2 1002.3
00 18.02 Ю 12
{23}
н/о н/о +6.2 +4.5 89 -0 -0 1009.2 1002.3 0.2
01 18.02 Ю 11
{17}
н/о н/о +6.0 +4.7 91 -0 -0 1009.0 1002.1 0.3
02 18.02 Ю 11
{16}
н/о н/о +6.2 +5.0 92 -0 -0 1008.4 1001.5
03 18.02 Ю 12
{16}
н/о н/о +5.9 +4.7 92 -1 -1 1007.6 1000.7
04 18.02 Ю 13
{17}
н/о н/о +6.0 +4.8 92 -1 -1 1007.3 1000.4
05 18.02 Ю 12
{16}
н/о н/о +6.0 +4.8 92 -1 -1 1006.6 999.7
06 18.02 Ю 13
{17}
6000 м дымка 10/6 200 м
[St Cs]
+6.2 +5.2 93 -1 -1 1006.4 999.5 +5.9 +6.6 0.5
07 18.02 Ю 10
{16}
н/о н/о +6.3 +5.4 94 0 0 1006.5 999.6
08 18.02 Ю 10
{14}
н/о н/о +6.2 +5.3 94 0 0 1006.3 999.4
09 18.02 Ю 10
{13}
8000 м дымка 8/1 600 м
[St Cs]
+6.3 +5.4 94 0 0 1006.1 999.2
10 18.02 Ю 11
{14}
н/о н/о +6.4 +5.0 91 0 0 1005.8 998.9
11 18.02 Ю 11
{14}
н/о н/о +6.6 +5.4 92 0 0 1005.3 998.4
12 18.02 Ю 12
{16}
9000 м дымка 6/0
[Cc]
+6.9 +5.5 91 +1 +1 1004.6 997.8
13 18.02 Ю 14
{17}
н/о н/о +6.8 +5.4 91 0 0 1003.8 997.0
14 18.02 Ю 11
{18}
н/о н/о +6.7 +5.3 91 +1 +1 1003.1 996.3
15 18.02 Ю 12
{18}
5000 м дымка 10/1 300 м
[St Cs]
+6.5 +5.1 91 0 0 1002.4 995.6
16 18.02 Ю 11
{17}
н/о н/о +6.5 +5.1 91 0 0 1002.2 995.4
17 18.02 Ю 12
{17}
н/о н/о +6.5 +5.1 91 0 0 1001.8 995.0
18 18.02 Ю 11
{18}
6000 м дымка 10/10 300 м
[St]
+6.5 +5.0 90 0 0 1001.5 994.7 +6.1 +6.9
19 18.02 Ю 10
{14}
н/о н/о +6.4 +4.9 90 0 0 1001.1 994.3
20 18.02 Ю 10
{14}
н/о н/о +6.3 +4.8 90 0 0 1000.6 993.8
21 18.02 Ю 9
{14}
5000 м дымка 10/10 300 м
[St]
+6.3 +4.8 90 +1 +1 1000.0 993.2
22 18.02 Ю 12
{16}
н/о н/о +6.2 +4.9 91 -0 -0 999.0 992.2 0.6
23 18.02 Ю 12
{16}
н/о н/о +6.3 +4.8 90 -0 -0 997.9 991.1 0.5
00 19.02 ЮЗ 14
{19}
н/о н/о +6.2 +4.7 90 -1 -1 997.2 990.4 0.8
01 19.02 ЮЗ 11
{17}
н/о н/о +6.3 +4.9 91 0 0 997.0 990.2 0.4
02 19.02 ЮЗ 9
{13}
н/о н/о +6.5 +5.3 92 +1 +1 996.6 989.8
03 19.02 ЮЗ 10
{15}
н/о н/о +6.4 +4.9 90 0 0 996.2 989.4
04 19.02 З 10
{15}
н/о н/о +6.0 +4.5 90 -0 -0 996.2 989.4 0.6
05 19.02 З 10
{17}
н/о н/о +6.0 +4.3 89 -0 -0 996.5 989.7 0.3
06 19.02 З 11
{17}
8000 м дымка {дождь} 8/6 600 м
[Sc Ac As Cs]
+6.1 +3.1 81 -0 -0 996.7 989.9 +5.8 +6.5 3
07 19.02 З 10
{15}
н/о н/о +5.8 +3.3 84 -0 -0 997.4 990.6
08 19.02 З 10
{14}
н/о н/о +6.0 +3.5 84 -0 -0 998.3 991.5

 

Местоположение метеостанции Маяк Utsira (Норвегия): широта 59.31 долгота 4.88 высота над уровнем моря 55 м.

В архиве по умолчанию представлена погода на Маяке Utsira за последнюю неделю. Архивные данные за месяц целиком и за предыдущие месяцы, начиная с января 2011 года, Вы можете получить, выбрав интересующий диапазон дат из раскрывающегося списка и нажав кнопку "Ввод!".


*Определитесь, кто Вы:
робот инопланетянин человек

Внимание! Время в таблицах - всемирное. Для получения местного времени необходимо прибавить поправку, которая равна 1 ч.

Смотрите также архив погоды в соседних городах и на ближайших метеорологических станциях:

Погода в Роваере (Норвегия) (18 км)
Погода в Аэропорту Haugesund (Норвегия) (19 км)
Погода в Квитсёй (Норвегия) (41 км)
Погода в Недре Ватс (Норвегия) (52 км)
Погода в Ставангере (Норвегия) (62 км)
Погода в Ставангер аэропорту (Норвегия) (65 км)
Погода в Фистере (Норвегия) (67 км)
Погода на Маяке Slatteroy (Норвегия) (68 км)
Погода в Сархейме (Норвегия) (75 км)
Погода на Лярватне (Норвегия) (76 км)

Пояснения к столбцам:

Ветер - указаны скорость ветра в м/с - средняя за 10 мин, порывы в срок и между сроками (в фигурных скобках) и направление, откуда дует ветер: С - северный, СВ - северо-восточный, В - восточный, ЮВ - юго-восточный, Ю - южный, ЮЗ - юго-западный, З - западный, СЗ - северо-западный.
Видимость - горизонтальная дальность видимости в метрах или километрах. При видимости от 1 до 10 км при отсутствии осадков обычно наблюдается дымка, при ухудшении видимости до 1 км и менее - туман. В сухую погоду видимость может ухудшаться дымом, пылью или мглою.
Явления - указаны атмосферные явления, наблюдавшиеся в срок или в последний час перед сроком; фигурными скобками обозначены явления, наблюдавшиеся между сроками (за 1-3 часа до срока); квадратными скобками обозначены град или гололедные отложения с указанием их диаметра в мм.
Облачность - указаны через наклонную черту общая и нижняя облачность в баллах и высота нижней границы облаков в метрах; квадратными скобками обозначены формы облаков: Ci - перистые, Cs - перисто-слоистые, Cc - перисто-кучевые, Ac - высококучевые, As - высокослоистые, Sc - слоисто-кучевые, Ns - слоисто-дождевые, Cu - кучевые, Cb - кучево-дождевые. Подробнее классификацию облаков см. в Атласе облаков (PDF).
T - Температура воздуха - температура, измеренная на высоте 2 м над землей.
Td - Температура точки росы - температура, при понижении до которой содержащийся в воздухе водяной пар достигнет насыщения.
f - Относительная влажность воздуха - влажноcть воздуха, измеренная на высоте 2 м над землей.
Te - Эффективная температура - температура, которую ощущает одетый по сезону человек в тени. Характеристика душности погоды. При расчете учитывается влияние влажности воздуха и скорости ветра на теплоощущения человека.
Tes - Эффективная температура на солнце - температура, которую ощущает человек, с поправкой на солнечный нагрев. Характеристика знойности погоды. Зависит от высоты солнца над горизонтом, облачности и скорости ветра. Ночью, в пасмурную погоду, а также при ветре 12 м/с и более поправка равна нулю.
P - Атмосферное давление - приведенное к уровню моря атмосферное давление.
Po - Атмосферное давление - измеренное на уровне метеостанции атмосферное давление.
Tmin - Минимальная температура - минимум температуры воздуха на высоте 2 м над землей.
Tmax - Максимальная температура - максимум температуры воздуха на высоте 2 м над землей.
R - Количество осадков - Количество выпавших осадков за период времени, мм. При наведении курсора мыши на число - период времени, за который выпало указанное количество осадков.
R24 - Количество осадков - Количество выпавших осадков за 24 часа, мм.
S - Снежный покров - Высота снежного покрова, см. При наведении курсора мыши на число - состояние снежного покрова и степень покрытия местности в баллах.